Regional Weather Roundup
Issued by NWS Portland, ME

Current Version | Previous Version | Text Only | Print | Product List | Glossary Off
Versions: 1 2 3 4 5 6 7 8 9 10 11 12 13 14 15 16 17 18 19 20 21 22 23 24 25 26 27 28 29 30 31 32 33 34 35 36 37 38 39 40 41 42 43 44 45 46 47 48 49 50

000
ASUS41 KGYX 222305
RWRGYX
WEATHER ROUNDUP FOR MAINE AND NEW HAMPSHIRE
NATIONAL WEATHER SERVICE GRAY ME
700 PM EDT THU JUN 22 2017

MEZ002-005-006-010-012-015-018-020-021-024-026-027-029-230000-
MAINE

CITY           SKY/WX    TMP DP  RH WIND       PRES   REMARKS
PORTLAND       CLOUDY    71  54  54 S9        29.85S
SANFORD        CLOUDY    73  60  63 S5        29.87R
BAR HARBOR     CLOUDY    67  55  65 SW8       29.84R
WISCASSET      MOSUNNY   72  54  53 VRB3      29.86S
ROCKLAND       CLOUDY    67  55  65 SW12      29.84F
FRYEBURG       CLOUDY    75  54  47 VRB5      29.86R
LEWISTONAUBURN   N/A     77  53  43 W3        29.86R
AUGUSTA        CLOUDY    75  50  41 NW5       29.85S
WATERVILLE     CLOUDY    73  54  51 W5        29.83R
BANGOR         CLOUDY    73  51  46 NW3       29.83R
GREENVILLE       N/A     67  49  52 VRB3      29.85R
MILLINOCKET    LGT RAIN  71  47  42 NW6       29.83R
HOULTON        SUNNY     71  43  36 W13G22    29.78R
PRESQUE ISLE   SUNNY     72  46  39 W12       29.78R
FRENCHVILLE    MOSUNNY   67  43  41 NW12      29.77R
CARIBOU        SUNNY     72  45  37 W8        29.76R
$$

NHZ002-005-008-009-011-012-014-230000-
NEW HAMPSHIRE

CITY           SKY/WX    TMP DP  RH WIND       PRES   REMARKS
PORTSMOUTH     PTSUNNY   71  58  63 SE6       29.85S
ROCHESTER      CLOUDY    76  54  46 CALM      29.86S
NASHUA         PTSUNNY   79  56  45 VRB5      29.88
MANCHESTER     PTSUNNY   79  50  36 W7        29.87R
CONCORD        CLOUDY    77  53  43 W9        29.88R
LACONIA        PTSUNNY  N/A N/A N/A W3        29.88R
PLYMOUTH       FAIR      74  54  49 CALM      29.88R
BERLIN         CLOUDY    72  50  45 CALM      29.88S
WHITEFIELD     CLOUDY    73  52  47 SW5       29.88R
JAFFREY        CLOUDY    76  54  46 W3        29.91S
KEENE          PTSUNNY   74  61  63 CALM      29.90R
LEBANON        CLOUDY    76  57  51 S7        29.88R
MT WASHINGTON  PTSUNNY   46  43  87 W26         N/A
$$

VTZ005-007-008-230000-
VERMONT

CITY           SKY/WX    TMP DP  RH WIND       PRES   REMARKS
ST JOHNSBURY     N/A     74  54  49 MISG      29.86R
MONTPELIER     CLOUDY    71  56  58 SW7       29.93R
BURLINGTON     CLOUDY    77  51  40 W6        29.87R
$$

MAZ007-012-024-CTZ003-RIZ002-NYZ038-NYZ072-230000-
SOUTHERN NEW ENGLAND AND NY

CITY           SKY/WX    TMP DP  RH WIND       PRES   REMARKS
BOSTON         PTSUNNY   82  51  34 NW10      29.87R
WORCESTER      MOSUNNY   76  51  41 SW8       29.92S
NANTUCKET      MOSUNNY   65  58  78 SW14G30   29.93F
PROVIDENCE     PTSUNNY   77  60  55 S17       29.90R
HARTFORD       PTSUNNY   80  58  46 SW8       29.88S
ALBANY         CLOUDY    79  58  48 W5        29.89R
NEW YORK CITY  PTSUNNY   80  64  58 S14       29.90R
$$

ANZ081-ANZ082-ANZ150-NHZ014-MEZ023>029-230000-
COASTAL MARINE OBSERVATIONS

STATION/POSITION TIME  TEMP    WIND        PRES    WAVE
                       AIR SEA DIR/SP/G            HT/PER
                 (UTC) (F)     (DEG/KT/KT) (MB)    (FT/S)
MATINICUS ROCK   2200   60     220/ 20/ 21 1010.6F
ISLE OF SHOALS   2200   67     160/ 20/ 20 1010.9F
JEFFREYS LEDGE   2206      61                N/A     2/ 6
CASHES LEDGE BUO 2150   64 60              1011.9    2/ 6
GEORGES BANK BUO 2150   57 56              1013.5    3/ 6
$$

.............KEY..............
   WCI - WIND CHILL
   TC  - TEMPERATURE IN CELSIUS
   VSB - VISIBILITY IN MILES
   HX  - HEAT INDEX
   FAIR- INDICATES FEW OR NO CLOUDS BELOW 12,000 FT, WITH NO
         SIGNIFICANT WEATHER AND/OR OBSTRUCTIONS TO VISIBILITY.






USA.gov is the U.S. government's official web portal to all federal, state and local government web resources and services.